Terminal Aerodrome Forecast
Issued by NWS

Home | Current Version | Previous Version | Text Only | Print | Product List | Glossary On
Versions: 1 2 3 4 5 6 7 8 9 10 11 12 13 14 15 16
000
FTUS43 KLSX 301100
TAFUIN
TAF
KUIN 301120Z 3012/0112 04007KT 3SM BR OVC004
     FM301600 06005KT 6SM BR SCT006 BKN015
     FM301800 10006KT P6SM SCT015 BKN250=

USA.gov is the U.S. government's official web portal to all federal, state and local government web resources and services.